Ellington Field, TX

12:56 PM CDT on June 23, 2017 (GMT -0500)
Ellington

Weather History for KEFD - May, 2013

Change the Weather History Date:

Saturday, May 25, 2013

  Actual Average Record
Temperature  
Mean Temperature 83 °F -  
Max Temperature 91 °F 86 °F 93 °F (2005)
Min Temperature 75 °F 68 °F 64 °F (2015)
Cooling Degree Days 18    
Growing Degree Days 33 (Base 50)    
Moisture  
Dew Point 73 °F    
Average Humidity 78    
Maximum Humidity 94    
Minimum Humidity 55    
Precipitation  
Precipitation 0.00 in - - ()
Sea Level Pressure  
Sea Level Pressure 30.12 in    
Wind  
Wind Speed 4 mph (SE)    
Max Wind Speed 14 mph    
Max Gust Speed -    
Visibility 10 miles    
Events      
Averages and records for this station are not official NWS values.
T = Trace of Precipitation, MM = Missing Value Source: NWS Daily Summary

Daily Weather History Graph

Daily Weather History Graph

Search for Another Location

Airport or City:

Trip Planner

Search our weather history database for the weather conditions in past years. The results will help you decide how hot, cold, wet, or windy it might be!

Date:

Astronomy

May. 25, 2013 Rise Set
Actual Time 6:22 AM CDT 8:12 PM CDT
Civil Twilight 5:56 AM CDT 8:39 PM CDT
Nautical Twilight 5:24 AM CDT 9:11 PM CDT
Astronomical Twilight 4:50 AM CDT 9:45 PM CDT
Moon 9:02 PM CDT (5/25) 6:49 AM CDT (5/25)
Length of Visible Light 14h 42m
Length of Day
13h 49m
Full, 100% of the Moon is Illuminated
May 25
Full
May 31
Last Quarter
Jun 8
New
Jun 16
First Quarter
Jun 23
Full

Hourly Weather History & Observations

Time (CDT) Temp. Heat Index Dew Point Humidity Pressure Visibility Wind Dir Wind Speed Gust Speed Precip Events Conditions
12:50 AM 77.0 °F - 73.4 °F 89% 30.13 in 10.0 mi Calm Calm - N/A   Scattered Clouds
1:50 AM 75.2 °F - 71.6 °F 89% 30.10 in 10.0 mi Calm Calm - N/A   Scattered Clouds
2:50 AM 75.2 °F - 71.6 °F 89% 30.10 in 10.0 mi Calm Calm - N/A   Scattered Clouds
3:50 AM 75.2 °F - 71.6 °F 89% 30.10 in 10.0 mi Calm Calm - N/A   Scattered Clouds
4:50 AM 75.2 °F - 73.4 °F 94% 30.09 in 10.0 mi East 4.6 mph - N/A   Scattered Clouds
5:50 AM 75.2 °F - 73.4 °F 94% 30.10 in 10.0 mi Calm Calm - N/A   Mostly Cloudy
6:50 AM 75.2 °F - 73.4 °F 94% 30.12 in 10.0 mi Calm Calm - N/A   Mostly Cloudy
7:50 AM 75.2 °F - 71.6 °F 89% 30.13 in 10.0 mi Calm Calm - N/A   Mostly Cloudy
8:50 AM 78.8 °F - 73.4 °F 83% 30.16 in 10.0 mi SE 6.9 mph - N/A   Mostly Cloudy
9:50 AM 82.4 °F 89.5 °F 75.2 °F 79% 30.16 in 10.0 mi SE 8.1 mph - N/A   Mostly Cloudy
10:50 AM 84.2 °F 90.9 °F 73.4 °F 70% 30.16 in 10.0 mi SE 11.5 mph - N/A   Mostly Cloudy
11:50 AM 86.0 °F 95.1 °F 75.2 °F 70% 30.16 in 10.0 mi ESE 13.8 mph - N/A   Mostly Cloudy
12:50 PM 86.0 °F 95.1 °F 75.2 °F 70% 30.16 in 10.0 mi ESE 11.5 mph - N/A   Mostly Cloudy
1:50 PM 89.6 °F 98.2 °F 73.4 °F 59% 30.16 in 10.0 mi ESE 6.9 mph - N/A   Overcast
2:50 PM 91.4 °F 100.1 °F 73.4 °F 55% 30.14 in 10.0 mi SSE 8.1 mph - N/A   Overcast
3:50 PM 87.8 °F 95.6 °F 73.4 °F 62% 30.12 in 10.0 mi SSE 10.4 mph - N/A   Mostly Cloudy
4:50 PM 86.0 °F 93.4 °F 73.4 °F 66% 30.10 in 10.0 mi ESE 6.9 mph - N/A   Mostly Cloudy
5:50 PM 84.2 °F 90.9 °F 73.4 °F 70% 30.09 in 10.0 mi ESE 11.5 mph - N/A   Overcast
6:50 PM 82.4 °F 87.2 °F 71.6 °F 70% 30.10 in 10.0 mi SE 9.2 mph - N/A   Overcast
7:50 PM 80.6 °F - - N/A% - 10.0 mi ESE 5.8 mph - N/A   Overcast
8:50 PM 78.8 °F - 69.8 °F 74% 30.09 in 10.0 mi ESE 8.1 mph - N/A   Overcast
9:50 PM 77.0 °F - 69.8 °F 78% 30.11 in 10.0 mi ESE 3.5 mph - N/A   Overcast
10:50 PM 77.0 °F - 69.8 °F 78% 30.11 in 10.0 mi ESE 8.1 mph - N/A   Overcast
11:50 PM 77.0 °F - 71.6 °F 83% 30.11 in 10.0 mi SE 5.8 mph - N/A   Overcast